Showing default

OPS 9325 (IDSCS 12), 2652

Orbit data source: Space-Track

OPS 9325 (IDSCS 12), 2652 is a payload satellite owned by USAF SSD (US) in GEO that was launched on Wed, 18 Jan 1967 UTC via a TITAN IIIC launch vehicle from the Air Force Eastern Test Range (AFETR). Payload-class satellites include a variety of spacecraft equipped with specific instruments for various scientific and technological missions. These include communications satellites like Starlink; space stations such as the ISS; scientific satellites like the Hubble; Earth observation satellites from companies like Planet Labs, Umbra, and HawkEye 360; GPS; miniature CubeSats for education and research; and military/defense satellites.

Loading next visibility...
Identifier
2652, 1967-003E
Orbit
GEO
Last TLE update
1 day ago
Origin
Manufacturer
Philco-Ford WDL
Mission
Non-operational Defense Communications
Bus & Motor
IDCSP, Unknown motor
Mass
45 kg wet, 45 kg dry
Launch date (UTC)
1967-01-18 (58 years ago)
Launch vehicle
TITAN IIIC
Launch site
Air Force Eastern Test Range (AFETR)
Object type
Payload
Rocket body
Debris
Shape & HBR
Ico Poly, 0.9 m
Radar Cross Section
0.926 m², Small (<0.1 m²)

Expand to show TLE details & history

TLE from 1 day ago
0 OPS 9325 (IDSCS 12)
1 02652U 67003E   25180.95633957 -.00000067  00000-0  00000-0 0  9998
2 02652   7.5923  48.9601 0039465  70.6247 289.7726  1.07942762136317
Epoch: 2025-06-29T22:57Z
TLE epoch observation values (Epoch: 2025-06-29T22:57:07.738Z)
Latitude
-0°
Longitude
146.38796°
Altitude
33,710.34 km
Speed
3.155 km/s
True Right ascension
03h 15m 46s
True Declination
0° 00' 00"
Sunlit
Object was in daylight at epoch
Visualization orbit readout
Latitude
-1.05146°
Longitude
-25.73692°
Altitude
33,836.799 km
Speed
3.146 km/s
Apparent Right ascension
15h 20m 09s
Apparent Declination
-7° 04' 48"
Sunlit
Object is in daylight
Visualization observer readout
Local Sidereal Time
20:22:39
Azimuth
255.276° W
Elevation
6.308°
Doppler factor
1
Orbital elements
Apogee altitude
33,924.044 km
Perigee altitude
33,607.19 km
Semi-major axis
40,143.754 km
Eccentricity
0.00395
Inclination
7.5923°
RAAN
48.9601°
Arg. of periapsis
70.6247°
True anomaly
Unknown
Mean anomaly
289.7726°
Eccentric anomaly
Unknown
Mean motion
0.26985 °/min
Orbital period
1,334.09 mins
BSTAR
0
Loading historical data...
2652 neighbors
Loading maneuver chart data...
Loading SW <> Apogee altitude chart data...
Loading historical data...
Loading historical data...
Loading historical data...
Loading historical data...
Loading historical data...
Loading historical data...
Loading historical data...

OPS 9325 (IDSCS 12) Visibility forecast

Observer location: undefined°, undefined°

Span
Click to sort rows by Start time (UTC) header in descending order
Start Az.
Max El. time (UTC)
Max El. Az.
Max El.
End time (UTC)
End Az.
948 mins2025-07-01 16:56:29.581Z245.909° WSW2025-07-02 03:07:29.581Z244.523° WSW24.939°2025-07-02 08:44:29.581Z230.828° WSW
|